Regional Weather Roundup
Issued by NWS

Home | Current Version | Previous Version | Graphics & Text | Print | Product List | Glossary On
Versions: 1 2 3 4 5 6 7 8 9 10 11 12 13 14 15 16 17 18 19 20 21 22 23 24 25 26 27 28 29 30 31 32 33 34 35 36 37 38 39 40 41 42 43 44 45 46 47 48 49 50
000
ASUS43 KMKX 260521
RWRWI

WISCONSIN REGIONAL WEATHER ROUNDUP
NATIONAL WEATHER SERVICE MILWAUKEE/SULLIVAN WI
1100 PM CST SUN JAN 25 2015

NOTE: "FAIR" INDICATES FEW OR NO CLOUDS BELOW 12,000 FEET WITH NO
SIGNIFICANT WEATHER AND/OR OBSTRUCTIONS TO VISIBILITY.

WIZ001-002-006>008-014>016-023>028-260600-
NORTHWEST WISCONSIN

CITY           SKY/WX    TMP DP  RH WIND       PRES   REMARKS
SUPERIOR ARPT  CLOUDY    18  12  77 SW5       29.96F WCI  11
ASHLAND        MOCLDY    13   7  77 S7        29.97F WCI   3
HAYWARD        PTCLDY     8   4  83 CALM      29.96F
SIREN          CLOUDY    20  11  67 S5        29.97F WCI  14
CUMBERLAND     CLEAR     12   7  79 S6        29.97S WCI   3
RICE LAKE      CLEAR     14  10  83 CALM      30.00S
CHETEK         CLEAR     12   9  87 CALM      29.99F
LADYSMITH      CLOUDY    15   9  76 S3        30.00S
EAU CLAIRE     MOCLDY    17   9  70 CALM      30.01F
MENOMONIE      PTCLDY    18  12  77 CALM      30.01F
NEW RICHMOND   PTCLDY    17  12  80 S3        30.00S
OSCEOLA        MOCLDY    20  14  76 S6        30.02S WCI  13
$$

WIZ003>005-009-010-017-018-260600-
NORTH CENTRAL WISCONSIN

CITY           SKY/WX    TMP DP  RH WIND       PRES   REMARKS
MANITOWISH WTR PTCLDY     2  -1  88 S3        29.93F
ARBOR VITAE    PTCLDY     9   5  83 CALM      29.94F
WOODRUFF       PTCLDY     9   5  83 CALM      29.94F
RHINELANDER    MOCLDY     7   3  84 S3        29.96F
EAGLE RIVER    PTCLDY     4  -1  79 CALM      29.94F
LAND O LAKES   PTCLDY    -2  -5  85 CALM      29.94F
PHILLIPS       CLOUDY    11   5  77 S6        29.95F WCI   2
TOMAHAWK       MOCLDY     8   5  86 CALM      29.97F
MEDFORD        MOCLDY     7   4  86 SE3       29.97S
MERRILL        MOCLDY    11   6  79 CALM      29.99F
$$

WIZ029-030-035-036-043>047-260600-
CENTRAL WISCONSIN

CITY           SKY/WX    TMP DP  RH WIND       PRES   REMARKS
WAUSAU         MOCLDY    13   4  67 SE5       29.99F WCI   5
MOSINEE        MOCLDY    12   7  79 SE6       30.01F WCI   3
MARSHFIELD     MOCLDY    14   6  70 S6        30.00F WCI   5
STEVENS POINT  MOCLDY     8   4  85 CALM      30.03F
WAUPACA        FAIR      16   9  74 CALM      30.06S
WAUTOMA        PTCLDY    12   9  88 CALM      30.05F
WISC RAPIDS    MOCLDY    11   5  77 SE5       30.04F WCI   3
CAMP DOUGLAS   MOCLDY    13  12  98 E3        30.03F
$$

WIZ011>013-019>022-031-037>040-048>050-260600-
NORTHEAST WISCONSIN

CITY           SKY/WX    TMP DP  RH WIND       PRES   REMARKS
ANTIGO         PTCLDY     7   2  79 S5        29.98F WCI  -2
SHAWANO        CLEAR     14   8  77 CALM      30.06S
OCONTO         PTCLDY     9   7  92 MISG      30.06S
STURGEON BAY   CLEAR     10   5  79 CALM      30.05S
GREEN BAY      PTCLDY    14   8  77 N5        30.05F WCI   6
MANITOWOC      CLOUDY    16  12  84 N5        30.04F WCI   9
APPLETON       MOCLDY    14   7  73 N5        30.04S WCI   6
CLINTONVILLE   CLEAR     14   7  73 CALM      30.06R
OSHKOSH        PTCLDY    16   7  67 N7        30.03F WCI   6
$$

WIZ032>034-041-042-053>061-260600-
SOUTHWEST WISCONSIN

CITY           SKY/WX    TMP DP  RH WIND       PRES   REMARKS
LA CROSSE      MOCLDY    23  16  74 S6        30.04S WCI  16
SPARTA         MOCLDY    17  11  75 CALM      30.05S
VIROQUA        MOCLDY    19  12  76 SE3       30.00F
BOSCOBEL       CLOUDY    21  13  71 CALM      30.06F
PRAIRIE DU CHI MOCLDY    19  13  77 CALM      30.06S
PLATTEVILLE    CLOUDY    18  14  82 N3        30.03F
$$

WIZ056-057-062-063-064-067-068-260600-
SOUTH CENTRAL WISCONSIN

CITY           SKY/WX    TMP DP  RH WIND       PRES   REMARKS
REEDSBURG      MOCLDY    15  10  80 CALM      30.04F
BARABOO/DELLS  MOCLDY    14   9  82 CALM      30.04S
LONE ROCK      CLOUDY    18  10  71 E6        30.06F WCI  10
MINERAL POINT  NOT AVBL
MADISON        MOCLDY    16  10  77 N5        30.03F WCI   9
MIDDLETON      CLEAR     18  12  79 N3        30.04S
WATERTOWN      PTCLDY    14  11  87 N7        30.02S WCI   4
MONROE         PTCLDY    18  14  86 N3        30.01R
JANESVILLE     CLEAR     18  12  79 N5        30.01F WCI  11
$$

WIZ051-052-058>065-066-070>072-260600-
SOUTHEAST WISCONSIN

CITY           SKY/WX    TMP DP  RH WIND       PRES   REMARKS
MILWAUKEE      PTCLDY    23  12  62 NE8       30.01F WCI  14
WAUKESHA       PTCLDY    14  10  85 N5        30.01F WCI   6
MILWAUKEE/TIMM PTCLDY    18  12  79 N7        30.02S WCI   8
RACINE         CLEAR     24  11  57 NE8       30.01F WCI  15
BURLINGTON     CLEAR     15  11  83 N6        30.00F WCI   6
KENOSHA        CLEAR     18  11  74 E8        29.99F WCI   8
FOND DU LAC    MOCLDY    15   7  70 N6        30.03F WCI   6
SHEBOYGAN      PTCLDY    16  10  77 N7        30.02F WCI   6
WEST BEND      PTCLDY    16  10  79 CALM      30.01F
JUNEAU         MOCLDY    14   9  81 NW7       30.04S WCI   4
$$

LSZ147-162-260600-
LAKE SUPERIOR

STATION/POSITION TIME  TEMP    WIND        PRES    WAVE
                       AIR SEA DIR/SP/G            HT/PER
                 (UTC) (F)     (DEG/KT/KT) (MB)    (FT/S)
DEVILS ISLAND    0500   20     200/ 11/ 14 1015.9F
PORT WING        0400   17     170/  3/  4 1015.6
SAXON HARBOR     0400   11        CALM     1016.3F
$$

LMZ867-665-643>646-260600-
LAKE MICHIGAN

STATION/POSITION TIME  TEMP    WIND        PRES    WAVE
                       AIR SEA DIR/SP/G            HT/PER
                 (UTC) (F)     (DEG/KT/KT) (MB)    (FT/S)
NORTHPORT PIER   0412   18      30/  5/ 10 1017.6F
SISTER BAY       0413   13        CALM       N/A
KEWAUNEE LAKESHO 0400   18      10/  5/  7 1017.0F
SHEBOYGAN LAKESH 0500   23      70/ 13/ 16 1018.0F
PORT WASHINGTON  0440   18     330/  5/  8 1017.6F
MILWAUKEE LAKESH 0500   26      60/ 11/ 14   N/A
KENOSHA   LAKESH 0500   26      70/ 14/ 18 1015.9S
$$

TC  - TEMPERATURE IN CELSIUS
VSB - VISIBILITY IN STATUTE MILES
WCI - WIND CHILL INDEX
HX  - HEAT INDEX




USA.gov is the U.S. government's official web portal to all federal, state and local government web resources and services.